Location: Lecco
(45.8566°N, 9.3977°E)
Time: 02:41:49
(UTC+01:00)

Envisat - Pass Details

Date: 23 October 2019
Orbit: 764 x 766 km, 98.1° (Epoch: 19 November)

Event Time Altitude Azimuth Distance (km) Brightness Sun altitude
Rises 20:58:54 0° 220° (SW) 3,222 6.6 -27.6°
Reaches altitude 10° 21:02:46 10° 250° (WSW) 2,303 6.1 -28.3°
Maximum altitude 21:04:46 12° 273° (W) 2,153 6.2 -28.6°
Drops below altitude 10° 21:06:46 10° 297° (WNW) 2,310 6.4 -29.0°
Sets 21:10:40 0° 327° (NNW) 3,243 6.9 -29.6°
